Flag for Germany Weather past 2 weeks in Bad Mergentheim, Baden-Württemberg, Germany

Now
52 °F

Passing clouds.


Feels Like: 51 °F
Forecast: 46 / 67 °F
Wind: 3 mph from West

Location: Niederstetten

Current Time: Sep 4, 2015 at 4:38:44 AM

Latest Report: Sep 4, 2015 at 3:20 AM


Visibility: N/A

Pressure: 30.01 "Hg

Humidity: 72%

Dew point: 43 °F

Location of Bad MergentheimLocation

Historic Weather in Bad Mergentheim — Graph

°F

Bad Mergentheim temperature yesterday

Maximum temperature yesterday: 66 °F (at 5:20 PM)
Minimum temperature yesterday: 55 °F (at 1:20 AM)
Average temperature yesterday: 59 °F

Past Weeks' High & Low Weather Summary

 TemperatureHumidityPressure
High90 °F (Aug 30, 3:20 PM)100% (Aug 21, 12:20 AM)30.30 "Hg (Aug 21, 12:20 AM)
Low50 °F (Aug 20, 5:20 AM)25% (Aug 31, 2:20 PM)29.74 "Hg (Aug 24, 8:20 AM)
Average66 °F66%30.03 "Hg
* Reported Aug 20 3:20 AM — Sep 4 3:20 AM, Bad Mergentheim, Weather by CustomWeather, © 2015

Note: Actual official high and low records may vary slightly from our data, if they occured in-between our weather recording intervals... More about our weather records

Advertising

Bad Mergentheim weather history for previous 24 hours

 ConditionsComfort  
Time TempWeatherWind HumidityBarometerVisibility
3:20 AM
Fri, Sep 4
52 °FPassing clouds.3 mph72%30.01 "HgN/A
2:20 AM55 °FPassing clouds.3 mph63%30.01 "HgN/A
1:20 AM55 °FPassing clouds.2 mph67%30.01 "HgN/A
12:20 AM57 °FPassing clouds.3 mph63%29.98 "HgN/A
11:20 PM
Thu, Sep 3
57 °FPassing clouds.6 mph63%29.98 "HgN/A
10:20 PM57 °FPassing clouds.3 mph63%29.98 "HgN/A
9:20 PM59 °FPassing clouds.2 mph59%29.98 "HgN/A
8:20 PM61 °FPartly sunny.3 mph52%29.95 "HgN/A
7:20 PM63 °FPassing clouds.7 mph49%29.95 "HgN/A
6:20 PM64 °FScattered clouds.7 mph46%29.95 "HgN/A
5:20 PM66 °FScattered clouds.7 mph43%29.95 "HgN/A
4:20 PM64 °FScattered clouds.8 mph43%29.95 "HgN/A
3:20 PM64 °FPartly sunny.9 mph56%29.95 "HgN/A
2:20 PM63 °FPartly sunny.9 mph64%29.95 "HgN/A
1:20 PM63 °FPartly sunny.6 mph68%29.98 "HgN/A
12:20 PM59 °FBroken clouds.7 mph88%29.98 "Hg6 mi
12:01 PM59 °FBroken clouds.6 mph88%29.98 "Hg5 mi
11:20 AM59 °FBroken clouds.6 mph88%29.98 "Hg4 mi
10:20 AM57 °FBroken clouds.3 mph94%29.98 "Hg4 mi
9:20 AM55 °FLight rain. Fog.3 mph94%29.98 "Hg3 mi
8:20 AM55 °FDrizzle. Fog.3 mph94%29.98 "Hg3 mi
7:20 AM55 °FSprinkles. Fog.5 mph94%29.98 "Hg3 mi
6:20 AM55 °FPassing clouds.2 mph94%29.95 "HgN/A
5:20 AM55 °FPartly cloudy.8 mph88%29.98 "Hg5 mi
4:20 AM55 °FPassing clouds.5 mph88%29.95 "HgN/A
Weather by CustomWeather, © 2015

See weather overviewHow to use our weather pages